EW9202 Weather Reports


Display with metric or nautical units.
time (UTC)temp
F
wind
direction
speed
MPH
gust
MPH
rain 1hr
in
rain 24hr
in
rain mn
in
humidity
%
barometer
mb
20260505071537 68 76 3.0 8.0 0.00 0.07 0.07 66 1006.6
20260505070052 66 335 1.0 4.0 0.00 0.07 0.07 70 1006.8
20260505064519 64 350 2.0 4.0 0.00 0.07 0.07 77 1006.9
20260505063039 62 216 0.0 2.0 0.00 0.07 0.07 85 1007.1
20260505061616 60 214 0.0 2.0 0.00 0.07 0.07 93 1007.0
20260505060018 58 215 2.0 5.0 0.00 0.07 0.07 93 1007.3
20260505054531 58 217 0.0 2.0 0.00 0.07 0.07 94 1007.2
20260505053029 57 219 0.0 0.0 0.00 0.07 0.07 95 1007.1
20260505051530 57 216 0.0 3.0 0.00 0.07 0.07 95 1007.2
20260505041539 55 227 3.0 6.0 0.00 0.07 0.07 94 1007.3
20260505034537 55 222 0.0 0.0 0.00 0.07 0.07 93 1007.3
20260505033048 56 214 0.0 0.0 0.00 0.07 0.07 93 1007.4
20260505031544 56 215 0.0 0.0 0.00 0.07 0.07 93 1007.5
20260505030110 56 213 0.0 4.0 0.00 0.07 0.07 93 1007.7
20260505024609 57 255 0.0 3.0 0.00 0.07 0.07 93 1007.8
20260505023049 57 30 0.0 0.0 0.00 0.07 0.07 93 1007.6
20260505021613 57 28 0.0 0.0 0.00 0.07 0.07 92 1007.6
20260505020030 57 30 0.0 0.0 0.00 0.07 0.07 92 1007.6
20260505014546 58 32 0.0 0.0 0.00 0.07 0.07 92 1007.6
20260505013010 58 34 0.0 0.0 0.00 0.07 0.07 91 1007.8
20260505011528 58 36 0.0 0.0 0.00 0.07 0.07 91 1007.9
20260505010012 58 36 0.0 0.0 0.00 0.07 0.07 91 1008.0
20260505004513 58 33 0.0 0.0 0.00 0.07 0.07 90 1008.1
20260505003101 58 33 0.0 0.0 0.00 0.07 0.07 89 1008.2
20260505001506 59 43 1.0 8.0 0.01 0.07 0.07 88 1008.3
20260505000110 59 291 1.0 5.0 0.02 0.07 0.07 88 1008.5
20260504234556 59 266 0.0 8.0 0.04 0.07 0.07 87 1008.8
20260504233111 59 154 3.0 10.0 0.04 0.07 0.07 85 1008.1
20260504231602 59 90 7.0 14.0 0.06 0.06 0.06 83 1009.0
20260504230054 60 128 3.0 11.0 0.05 0.05 0.05 80 1009.6
20260504224550 61 88 2.0 5.0 0.03 0.03 0.03 79 1010.1
20260504223037 62 240 3.0 9.0 0.03 0.03 0.03 76 1010.8
20260504221535 64 223 5.0 17.0 0.00 0.00 0.00 66 1010.9
20260504214600 66 68 0.0 0.0 0.00 0.00 0.00 58 1009.4
20260504213029 66 68 0.0 2.0 0.00 0.00 0.00 55 1009.7
20260504211506 66 71 1.0 3.0 0.00 0.00 0.00 55 1009.7
20260504210027 66 74 0.0 1.0 0.00 0.00 0.00 56 1009.8
20260504204531 66 74 0.0 0.0 0.00 0.00 0.00 56 1009.9
20260504203058 67 74 0.0 0.0 0.00 0.00 0.00 54 1009.8
20260504201521 67 74 0.0 0.0 0.00 0.00 0.00 52 1009.8
20260504200012 68 75 0.0 5.0 0.00 0.00 0.00 50 1009.9
20260504194529 68 74 0.0 2.0 0.00 0.00 0.00 50 1009.8
20260504193037 69 74 1.0 4.0 0.00 0.00 0.00 49 1009.8
20260504191526 70 77 0.0 1.0 0.00 0.00 0.00 48 1009.8
20260504190040 70 77 1.0 5.0 0.00 0.00 0.00 46 1009.7
20260504184535 71 38 1.0 4.0 0.00 0.00 0.00 45 1009.6
20260504183044 71 53 1.0 4.0 0.00 0.00 0.00 44 1009.5
20260504181555 72 35 0.0 3.0 0.00 0.00 0.00 43 1009.5
20260504180107 72 42 1.0 4.0 0.00 0.00 0.00 42 1009.5
20260504174556 72 26 1.0 5.0 0.00 0.00 0.00 41 1009.5
20260504173110 73 42 3.0 7.0 0.00 0.00 0.00 41 1009.5
20260504171514 73 47 2.0 6.0 0.00 0.00 0.00 41 1009.5
20260504081502 67 350 1.0 7.0 0.00 0.00 0.00 48 1012.5
20260504080104 65 252 0.0 9.0 0.00 0.00 0.00 51 1012.5